Location: Stockholm
(59.3330°N, 18.0500°E)
Time: 09:06:44
(UTC+01:00)

FENGYUN 1C DEB - Pass Details

Date: 12 December 2023
Orbit: 841 x 915 km, 98.8° (Epoch: 27 February)

Event Time Altitude Azimuth Distance (km) Brightness Sun altitude
Exits shadow 18:39:25 17° 7° (N) 2,018 ? -27.0°
Drops below altitude 10° 18:41:03 10° 354° (N) 2,487 ? -27.3°
Sets 18:43:48 0° 342° (NNW) 3,434 ? -27.6°
